Date,TemperatureHighF,TemperatureAvgF,TemperatureLowF,DewpointHighF,DewpointAvgF,DewpointLowF,HumidityHigh,HumidityAvg,HumidityLow,PressureMaxIn,PressureMinIn,WindSpeedMaxMPH,WindSpeedAvgMPH,GustSpeedMaxMPH,PrecipitationSumIn
2013-12-1,43.1,40.0,34.9,40.1,37.3,29.7,100,90,77,30.35,29.93,7,3,19,0.21
2013-12-2,39.9,38.1,36.5,39.9,38.1,36.5,100,100,100,29.93,29.84,7,2,13,0.00
2013-12-3,48.2,39.0,35.5,41.1,36.6,32.1,100,92,67,29.85,29.76,6,2,14,0.01
2013-12-4,41.8,36.4,30.9,32.6,29.9,27.9,93,78,59,30.12,29.85,8,2,18,0.00
2013-12-5,52.6,43.1,30.0,52.6,41.8,28.0,100,95,88,30.15,29.83,6,1,14,0.00
2013-12-6,56.6,48.6,33.8,56.6,46.9,33.8,100,94,72,30.08,29.77,10,2,25,0.25
2013-12-7,38.3,32.6,25.8,35.0,26.2,-99.9,100,84,60,30.36,30.00,11,2,24,0.16
2013-12-8,29.5,26.9,21.1,22.2,19.2,16.1,95,74,58,30.52,30.36,4,1,11,0.00
2013-12-9,41.5,34.6,26.0,41.5,33.2,17.5,100,95,63,30.42,29.79,5,1,13,0.43
2013-12-10,36.0,32.6,26.1,34.7,29.7,14.5,100,90,61,29.90,29.70,10,4,27,0.01
2013-12-11,32.5,26.9,21.3,20.4,17.8,14.6,85,69,49,30.11,29.91,13,5,29,0.00
2013-12-12,24.5,20.5,15.6,19.5,8.1,-1.1,84,61,34,30.18,29.98,11,3,27,0.00
2013-12-13,28.4,21.3,13.3,21.2,11.1,-1.1,84,65,52,30.32,29.90,11,5,25,0.00
2013-12-14,29.0,16.4,8.6,29.0,8.8,-4.1,100,73,52,30.53,30.13,7,4,20,0.00
2013-12-15,39.1,29.3,22.4,39.1,28.7,22.3,100,98,85,30.11,29.33,15,6,28,0.26
2013-12-16,29.1,25.3,17.2,23.7,15.0,8.3,88,66,42,30.12,29.65,12,6,26,0.00
2013-12-17,27.0,15.5,5.6,27.0,10.6,-1.8,100,81,61,30.21,29.89,10,3,20,0.00
2013-12-18,34.7,26.2,16.4,25.4,20.0,-99.9,96,81,59,29.98,29.78,10,5,24,0.00
2013-12-19,43.8,34.5,27.6,29.1,26.0,22.2,85,72,51,30.03,29.87,11,4,26,0.13
2013-12-20,52.6,43.1,33.5,40.4,34.8,28.6,85,73,61,30.04,29.82,8,1,18,0.12
2013-12-21,57.2,50.6,44.2,50.2,44.6,36.3,91,80,70,29.87,29.76,7,3,18,0.00
2013-12-22,52.9,39.1,33.1,50.3,38.9,33.1,100,99,91,29.96,29.73,8,3,20,0.13
2013-12-23,37.9,33.6,31.3,37.9,33.6,31.3,100,100,100,30.02,29.88,4,1,14,0.43
2013-12-24,37.9,32.8,26.7,37.9,24.7,14.5,100,73,55,30.11,29.97,8,3,20,0.01
2013-12-25,26.4,18.9,12.3,14.8,5.6,-0.8,75,56,47,30.47,30.11,11,4,26,0.00
2013-12-26,38.5,26.4,18.4,37.3,23.0,11.9,100,87,67,30.43,29.99,5,1,16,0.02
2013-12-27,34.3,28.8,23.5,23.9,22.1,20.5,93,76,62,30.18,30.10,10,3,20,0.00
2013-12-28,47.4,36.3,27.2,30.4,27.1,22.7,84,70,51,30.13,29.89,10,3,22,0.02
2013-12-29,42.6,38.1,31.6,42.2,33.8,27.6,100,85,69,29.94,29.32,10,2,27,1.11
2013-12-30,43.3,30.5,17.2,36.6,12.9,-99.9,100,64,44,30.09,29.41,13,6,29,0.00
2013-12-31,23.2,17.0,10.9,15.4,3.8,-2.0,76,56,41,30.10,29.95,7,2,15,0.00